Flag for Germany Weather past 2 weeks in Würzburg, Bavaria, Germany

Now
41 °F

Sprinkles. Overcast.


Feels Like: 37 °F
Forecast: 35 / 46 °F
Wind: 7 mph from Northwest

Location: Wuerzburg

Current Time: Mar 2, 2015 at 12:54:13 PM

Latest Report: Mar 2, 2015 at 12:00 PM


Visibility: 5 mi

Pressure: 29.74 "Hg

Humidity: 89%

Dew point: 38 °F

Location of WürzburgLocation

Historic Weather in Würzburg — Graph

°F

Würzburg temperature yesterday

Maximum temperature yesterday: 48 °F (at 5:00 PM)
Minimum temperature yesterday: 32 °F (at 2:00 AM)
Average temperature yesterday: 40 °F

Past Weeks' High & Low Weather Summary

 TemperatureHumidityPressure
High53 °F (Feb 20, 4:00 PM)100% (Feb 17, 3:00 AM)30.79 "Hg (Feb 17, 3:00 AM)
Low26 °F (Feb 16, 9:00 AM)44% (Feb 26, 4:00 PM)29.50 "Hg (Feb 21, 8:00 AM)
Average36 °F85%30.04 "Hg
* Reported Feb 15 12:00 Noon — Mar 2 12:00 Noon, Würzburg, Weather by CustomWeather, © 2015

Note: Actual official high and low records may vary slightly from our data, if they occured in-between our weather recording intervals... More about our weather records

Advertising

Würzburg weather history for previous 24 hours

 ConditionsComfort  
Time TempWeatherWind HumidityBarometerVisibility
12:00 PM
Mon, Mar 2
41 °FSprinkles. Overcast.7 mph89%29.74 "Hg5 mi
11:00 AM44 °FPartly sunny.7 mph73%29.70 "Hg37 mi
10:00 AM44 °FOvercast.8 mph74%29.68 "Hg37 mi
9:00 AM43 °FOvercast.6 mph78%29.67 "Hg37 mi
8:00 AM43 °FOvercast.5 mph83%29.64 "Hg37 mi
7:00 AM44 °FOvercast.9 mph79%29.62 "Hg28 mi
6:00 AM44 °FRain. Overcast.7 mph90%29.59 "Hg12 mi
5:00 AM46 °FOvercast.10 mph86%29.56 "Hg16 mi
4:00 AM45 °FLight rain. Low clouds.3 mph97%29.55 "Hg9 mi
3:00 AM44 °FRain. Overcast.6 mph97%29.57 "Hg7 mi
2:00 AM45 °FRain. Overcast.6 mph92%29.60 "Hg7 mi
1:00 AM46 °FPassing clouds.7 mph90%29.62 "Hg25 mi
12:00 AM46 °FOvercast.6 mph89%29.67 "Hg28 mi
11:00 PM
Sun, Mar 1
46 °FOvercast.5 mph91%29.68 "Hg28 mi
10:00 PM45 °FOvercast.3 mph91%29.72 "Hg28 mi
9:00 PM46 °FOvercast.5 mph93%29.72 "Hg28 mi
8:00 PM47 °FLight rain. Overcast.6 mph87%29.72 "Hg28 mi
7:00 PM46 °FOvercast.7 mph88%29.72 "Hg28 mi
6:00 PM47 °FOvercast.7 mph86%29.72 "Hg28 mi
5:00 PM48 °FOvercast.8 mph80%29.73 "Hg28 mi
4:00 PM47 °FOvercast.9 mph83%29.73 "Hg28 mi
3:00 PM46 °FOvercast.6 mph87%29.74 "Hg28 mi
2:00 PM45 °FOvercast.6 mph90%29.75 "Hg28 mi
1:00 PM42 °FLow clouds.6 mph93%29.77 "Hg22 mi
12:00 PM40 °FDrizzle. Low clouds.6 mph97%29.79 "Hg4 mi
Weather by CustomWeather, © 2015

See weather overviewHow to use our weather pages